SCP
0 0 0 0 0 0 0 0 0 0 0 0 0 0 0 0 0 0 0 0 -0 -0 -0 -0 -0 -0 -0 0 0 0 0 0 0 0 0 0 0 0
0 0 0 0 0 0 0 0 0 0 0 0 0 0 0 0 0 0 0 -0 -0 -0 -0 -0 -0 -0 -0 0 0 0 0 0 0 0 0 0 0 0
0 0 0 0 0 0 0 0 0 0 0 0 0 0 0 0 0 0 0 -0 -0 -0 -0 -0 -0 -0 -0 -0 -0 -0 -0 -0 -0 -0 -0 -0 -0 -0
0 0 0 0 0 0 0 0 0 0 0 0 0 0 0 0 0 0 0 0 0 -0 -0 -0 -0 -0 -0 -0 -0 -0 -0 -0 -0 -0 -0 -0 -0 -0
0 0 0 0 0 0 0 0 0 0 0 0 0 0 0 0 0 0 0 0 0 0 0 0 0 0 0 0 -0 -0 -0 -0 -0 -0 -0 -0 -0 -0
0 0 0 0 0 0 0 0 0 0 0 0 0 0 0 0 0 0 0 0 0 0 0 0 0 0 0 0 0 -0 -0 -0 -0 -0 -0 -0 -0 -0
0 0 0 0 0 0 0 0 0 0 0 0 0 0 0 0 0 0 0 0 0 0 0 0 0 0 0 0 0 0 0 -0 -0 -0 -0 -0 -0 -0
0 0 0 0 0 0 0 0 0 0 0 0 0 0 0 0 0 0 0 0 0 0 0 0 0 0 0 0 0 0 0 0 0 -0 -0 -0 -0 -0
0 0 0 0 0 0 0 0 0 0 0 0 0 0 0 0 0 0 0 0 0 0 0 0 0 0 0 0 0 0 0 0 0 0 -0 -0 -0 -0
0 0 0 0 0 0 0 0 0 -0 -0 0 0 0 0 0 0 0 0 0 0 0 0 0 0 0 0 0 0 0 0 0 0 0 -0 -0 -0 -0
0 0 0 0 -0 -0 0 0 -0 -0 -0 0 0 0 0 -0 -0 0 0 0 0 0 0 0 0 0 0 0 0 0 0 0 0 0 -0 -0 -0 -0
0 0 0 -0 -0 -0 -0 -0 -0 -0 -0 -0 -0 -0 -0 -0 0 0 0 0 0 0 0 0 0 0 0 0 0 0 0 0 0 0 -0 -0 -0 -0
0 0 -0 -0 -0 -0 -0 -0 -0 -0 -0 -0 -0 -0 0 0 0 0 0 0 0 0 0 0 0 0 0 0 0 0 0 0 0 0 0 -0 -0 -0
0 -0 -0 -0 -0 -0 -0 -0 -0 -0 -0 -0 -0 0 0 0 0 0 0 0 0 0 0 0 0 0 0 0 0 0 0 0 0 0 0 0 0 -0
-0 -0 -0 -0 -0 -0 -0 -0 -0 -0 -0 -0 0 0 0 0 -0 -0 -0 -0 -0 0 0 0 0 0 0 0 0 0 0 0 0 0 0 0 0 -0
-0 -0 -0 -0 -0 -0 -0 -0 -0 -0 -0 -0 0 -0 -0 -0 -0 -0 -0 -0 -0 -0 0 0 0 0 0 0 0 0 0 0 0 0 0 0 0 0
-0 -0 -0 -0 -0 0 0 0 0 -0 -0 -0 0 -0 -0 -0 -0 -0 -0 -0 -0 -0 -0 -0 -0 -0 0 0 0 0 0 0 0 0 0 0 0 0
-0 -0 -0 -0 -0 -0 -0 -0 -0 -0 -0 0 0 0 0 0 0 -0 -0 0 0 0 -0 -0 -0 -0 -0 -0 0 0 0 0 0 0 0 0 0 0
0 0 -0 -0 -0 -0 -0 -0 -0 -0 0 0 0 0 0 0 0 0 0 0 0 0 -0 -0 -0 -0 -0 -0 0 0 0 0 0 0 0 0 0 0
0 -0 -0 -0 -0 -0 -0 -0 -0 0 0 0 0 0 0 0 0 0 0 -0 -0 -0 -0 -0 -0 -0 -0 -0 0 0 0 0 0 0 0 0 0 0
-0 -0 -0 -0 0 -0 -0 0 0 0 0 0 0 0 0 0 0 0 0 -0 -0 -0 -0 -0 -0 -0 -0 -0 -0 -0 0 0 0 -0 0 0 0 0
-0 -0 -0 0 0 0 0 0 0 0 0 0 0 0 0 0 0 0 0 -0 -0 -0 -0 -0 -0 -0 -0 -0 -0 -0 0 0 -0 -0 0 0 0 0
-0 -0 0 0 0 0 0 0 0 0 0 0 0 0 0 0 0 0 0 -0 -0 -0 -0 -0 -0 -0 -0 -0 -0 -0 -0 0 -0 -0 0 0 0 0
Wind_Speed
4 5 5 5 5 6 7 8 10 13 14 12 8 8 10 12 16 16 18 23 28 30 31 32 32 32 33 33 33 33 33 33 33 33 34 34 35 35
4 6 6 5 6 7 7 8 9 13 15 10 12 13 14 13 18 18 18 25 27 28 29 30 31 32 33 33 33 33 33 33 33 34 34 35 35 36
5 6 7 8 7 7 8 9 10 11 16 15 13 14 18 18 16 16 16 17 16 25 28 30 32 32 33 33 33 33 33 33 33 34 34 34 35 35
6 7 8 7 9 9 8 10 10 12 15 19 15 15 18 18 18 18 16 14 16 23 28 30 31 32 32 33 33 33 33 33 33 33 34 34 35 35
7 8 9 9 11 10 11 11 11 11 13 16 17 15 14 14 17 17 18 15 16 18 24 26 28 31 32 32 33 33 33 33 33 33 33 33 34 34
8 8 9 10 11 12 11 13 13 14 14 15 15 15 15 16 16 15 15 14 14 15 19 21 24 28 30 31 32 32 32 32 32 32 32 33 33 34
9 9 10 12 15 14 12 13 14 13 13 14 15 15 15 15 15 14 15 16 16 14 16 15 15 16 18 23 26 28 30 31 31 32 32 33 33 33
10 10 11 12 14 18 20 20 20 17 16 15 15 16 19 18 16 15 16 17 17 13 15 17 15 16 15 15 23 30 31 32 32 32 32 33 33 34
10 11 10 10 15 13 17 20 20 22 22 18 18 18 19 18 18 19 18 18 18 16 16 19 16 17 15 16 28 31 32 31 31 31 31 31 32 33
11 12 12 13 13 16 17 17 16 16 17 15 15 17 17 18 18 18 19 19 18 14 15 18 17 17 16 16 25 29 28 28 29 30 30 31 31 32
11 12 13 14 17 21 18 17 17 15 16 19 22 23 26 26 21 13 14 14 16 15 13 12 13 16 16 16 16 22 25 27 28 29 29 30 30 30
10 11 14 15 19 22 17 16 17 16 15 16 17 17 17 17 19 13 11 12 14 12 8 9 12 12 12 10 11 14 16 22 27 27 28 29 29 20
10 10 10 18 21 23 21 15 17 18 16 15 13 13 12 11 11 11 10 10 13 13 12 11 11 11 12 14 14 14 14 14 15 18 22 26 28 23
11 10 12 21 23 23 17 17 21 18 11 10 11 11 11 11 11 13 14 14 14 17 17 16 13 14 14 17 16 14 13 14 14 14 13 20 22 25
11 17 20 22 20 15 15 18 16 9 9 10 11 11 11 12 13 12 14 13 15 15 15 16 15 14 14 15 16 16 17 15 11 12 14 14 13 12
11 15 19 17 14 14 14 11 8 8 10 10 11 11 12 11 11 11 12 12 12 13 11 12 14 15 14 16 15 16 14 12 13 15 15 14 11 9
13 11 9 9 9 9 9 9 9 9 9 9 10 11 11 11 11 10 10 11 12 13 14 12 11 11 14 15 14 13 12 13 13 15 15 13 11 8
13 9 8 9 9 10 10 11 10 10 10 10 10 11 11 11 12 11 10 11 12 12 13 13 13 13 10 8 10 10 11 12 13 15 14 13 10 8
8 7 8 9 9 9 10 10 11 11 10 10 11 11 11 11 11 11 11 11 11 12 12 12 11 11 13 13 8 6 10 13 13 13 12 12 11 10
6 8 8 9 9 10 10 10 11 11 10 10 11 11 10 11 11 11 11 12 12 13 12 11 10 10 10 11 10 11 13 12 11 12 12 11 10 10
8 8 9 9 10 10 10 10 11 11 12 11 11 11 10 11 11 11 11 16 14 11 12 12 11 16 11 9 10 10 9 11 13 11 11 11 11 10
9 9 9 10 10 10 10 10 11 11 12 11 11 11 10 10 11 13 12 12 11 11 12 11 12 10 8 8 11 12 12 12 12 13 12 14 10 10
9 10 10 10 10 9 10 11 13 11 11 11 11 11 11 11 11 11 11 11 11 11 11 11 10 9 9 9 10 10 13 13 11 10 9 17 20 19
Wind_Direction
281 280 281 284 282 282 282 284 291 298 300 302 298 302 300 297 296 293 293 293 295 294 294 294 295 294 294 293 291 289 287 285 282 280 278 275 273 271
289 289 291 289 289 285 282 282 280 286 289 295 300 301 303 296 293 293 292 293 291 291 292 293 293 293 293 291 290 288 286 284 282 279 277 275 272 270
287 290 293 297 294 292 289 285 283 284 288 294 298 302 301 299 298 296 294 293 292 293 294 294 293 293 292 291 289 288 286 284 282 280 278 276 274 271
294 293 295 299 295 293 290 288 287 287 289 296 299 300 300 300 299 299 298 295 294 295 295 294 294 293 291 290 289 287 285 284 282 280 278 276 274 273
292 294 297 299 297 296 296 292 290 289 288 291 296 299 299 301 303 300 300 298 298 296 296 294 293 292 291 290 289 288 286 284 283 280 278 276 274 272
288 289 292 294 297 299 296 294 294 295 294 293 294 299 301 304 304 305 304 303 300 299 294 293 292 293 291 290 288 286 285 283 281 279 276 274 271 268
290 288 288 292 294 295 295 297 300 297 295 294 296 300 302 307 306 308 305 304 299 299 298 297 298 293 291 288 287 284 283 282 281 278 276 273 269 266
295 296 296 293 294 298 299 299 296 293 294 295 297 298 300 303 307 305 303 303 303 306 302 299 297 292 291 289 288 289 288 287 284 281 277 274 270 266
298 298 299 298 303 301 300 297 294 291 290 293 293 294 299 303 303 302 301 300 298 301 300 295 297 294 293 291 293 291 290 288 285 282 279 275 271 267
296 299 300 303 304 306 303 300 297 296 294 293 291 292 293 295 296 298 298 296 292 290 292 293 297 297 299 296 293 290 288 288 287 285 282 278 274 269
300 299 300 299 303 307 305 303 302 300 299 297 293 290 291 294 296 295 295 295 296 299 298 289 296 304 298 290 289 292 294 293 291 288 286 283 278 274
302 300 299 302 307 309 309 307 305 308 308 303 298 296 295 294 294 289 290 291 296 298 295 299 301 310 304 290 296 300 299 296 295 294 291 288 283 277
305 304 303 309 310 312 313 307 305 308 304 303 303 301 300 299 299 299 294 287 286 282 289 300 294 296 287 293 301 298 295 296 300 297 294 291 287 281
305 305 307 311 313 315 312 308 309 310 304 304 302 301 303 304 303 301 295 287 275 276 282 285 280 283 286 289 294 297 300 299 297 295 295 294 291 284
304 306 309 311 315 313 309 311 312 307 305 303 300 301 302 300 299 298 297 293 288 281 275 273 273 277 278 282 287 294 301 302 298 303 304 300 293 286
312 309 310 311 310 306 308 310 307 303 305 299 299 299 299 299 299 301 303 306 303 300 290 280 277 279 283 284 285 289 295 298 307 309 308 304 299 292
317 309 308 312 314 315 314 313 311 309 307 303 301 301 302 302 302 304 301 301 297 301 307 308 299 289 280 278 282 284 296 304 308 313 313 311 309 306
318 308 311 314 313 315 315 313 312 311 309 306 302 299 300 302 302 303 301 300 299 300 303 308 312 313 309 286 253 278 298 308 313 316 316 317 316 318
315 311 311 309 308 307 307 306 306 307 306 301 298 298 298 298 299 300 302 301 300 302 303 306 309 313 318 320 304 283 305 312 316 319 321 323 320 323
318 311 307 306 305 304 303 302 303 304 303 301 299 297 296 297 297 298 300 301 302 303 305 307 311 315 312 302 298 300 304 311 321 322 323 321 317 319
314 308 304 303 301 300 299 299 299 298 298 299 296 296 296 296 295 296 297 300 302 302 307 309 307 309 301 288 293 305 313 319 320 322 326 327 331 335
309 306 303 300 299 297 297 297 297 296 297 295 295 295 295 294 294 296 297 300 301 301 304 305 308 312 310 305 311 315 320 325 326 326 335 347 343 339
307 304 301 299 296 295 294 294 295 293 293 293 293 293 295 295 294 293 295 296 299 304 310 312 316 318 315 309 312 317 326 332 335 339 341 345 348 351